Location: Mountain Grove
(34.0887°N, 86.6172°W)
Time: 15:01:42
(UTC+00:00)

Cosmos 1844 Rocket - Pass Details

Date: 14 July 2020
Orbit: 826 x 843 km, 71.0° (Epoch: 12 August)

Event Time Altitude Azimuth Distance (km) Brightness Sun altitude
Rises 01:38:35 0° 337° (NNW) 3,367 6.9 -7.9°
Reaches altitude 10° 01:41:01 10° 336° (NNW) 2,431 6.1 -8.3°
Maximum altitude 01:46:35 78° 251° (WSW) 848 2.8 -9.3°
Drops below altitude 10° 01:52:07 10° 166° (SSE) 2,423 4.6 -10.2°
Enters shadow 01:53:16 - 165° (SSE) 2,863 5.0 -10.4°
